Moorhead, MN

11:52 PM CDT on July 26, 2017 (GMT -0500)
Moorhead Municipal

Weather History for KJKJ - February, 2013

Change the Weather History Date:

Monday, February 18, 2013

  Actual Average (KFAR) Record (KFAR)
Temperature  
Mean Temperature 15 °F -  
Max Temperature 30 °F 22 °F 52 °F (1981)
Min Temperature 0 °F 6 °F -31 °F (1966)
Degree Days  
Heating Degree Days 50    
Moisture  
Dew Point 9 °F    
Average Humidity 94    
Maximum Humidity 100    
Minimum Humidity 85    
Precipitation  
Precipitation 0.00 in - - ()
Sea Level Pressure  
Sea Level Pressure 29.80 in    
Wind  
Wind Speed 21 mph (NNW)    
Max Wind Speed 41 mph    
Max Gust Speed 48 mph    
Visibility 1 miles    
Events Rain , Snow    
Averages and records for this station are not official NWS values.
T = Trace of Precipitation, MM = Missing Value Source: NWS Daily Summary

Daily Weather History Graph

Daily Weather History Graph

Search for Another Location

Airport or City:

Trip Planner

Search our weather history database for the weather conditions in past years. The results will help you decide how hot, cold, wet, or windy it might be!

Date:

Astronomy

Feb. 18, 2013 Rise Set
Actual Time 7:25 AM CST 5:56 PM CST
Civil Twilight 6:54 AM CST 6:27 PM CST
Nautical Twilight 6:19 AM CST 7:02 PM CST
Astronomical Twilight 5:43 AM CST 7:37 PM CST
Moon 11:32 AM CST (2/18) 2:16 AM CST (2/18)
Length of Visible Light 11h 33m
Length of Day
10h 31m
First Quarter, 58% of the Moon is Illuminated
Feb 18
First Quarter
Feb 25
Full
Mar 4
Last Quarter
Mar 11
New
Mar 19
First Quarter

Hourly Weather History & Observations

Time (CST) Temp. Windchill Dew Point Humidity Pressure Visibility Wind Dir Wind Speed Gust Speed Precip Events Conditions
12:15 AM 30.2 °F 22.6 °F 30.2 °F 100% 29.49 in 7.0 mi South 8.1 mph - N/A   Overcast
12:34 AM 30.2 °F 22.6 °F 30.2 °F 100% 29.49 in 7.0 mi South 8.1 mph - N/A   Overcast
12:54 AM 30.2 °F 22.6 °F 30.2 °F 100% 29.49 in 7.0 mi South 8.1 mph - N/A   Overcast
1:15 AM 30.2 °F 22.6 °F 30.2 °F 100% 29.49 in 5.0 mi South 8.1 mph - N/A Snow Light Snow
1:34 AM 28.4 °F 19.7 °F 28.4 °F 100% 29.48 in 3.0 mi SSW 9.2 mph - N/A Rain Light Freezing Rain
1:54 AM 28.4 °F 19.1 °F 28.4 °F 100% 29.49 in 5.0 mi SW 10.4 mph - N/A Rain Light Freezing Rain
2:15 AM 28.4 °F 20.4 °F 28.4 °F 100% 29.49 in 5.0 mi SW 8.1 mph - N/A   Overcast
2:34 AM 28.4 °F 20.4 °F 28.4 °F 100% 29.49 in 4.0 mi WSW 8.1 mph - N/A   Overcast
2:55 AM 28.4 °F 21.2 °F 28.4 °F 100% 29.49 in 3.0 mi West 6.9 mph - N/A Snow Light Snow
3:15 AM 30.2 °F 20.2 °F 30.2 °F 100% 29.49 in 4.0 mi WNW 12.7 mph - N/A Rain Light Freezing Rain
3:34 AM 28.4 °F 14.7 °F 28.4 °F 100% 29.50 in 4.0 mi NNW 21.9 mph - N/A Rain Light Freezing Rain
3:55 AM 26.6 °F 12.7 °F 26.6 °F 100% 29.51 in 3.0 mi NNW 20.7 mph - N/A   Overcast
4:15 AM 26.6 °F 11.7 °F 26.6 °F 100% 29.52 in 2.5 mi NNW 24.2 mph - N/A   Overcast
4:34 AM 24.8 °F 8.7 °F 24.8 °F 100% 29.53 in 2.5 mi NNW 26.5 mph - N/A   Overcast
4:55 AM 24.8 °F 9.6 °F 24.8 °F 100% 29.54 in 2.0 mi NNW 23.0 mph 29.9 mph N/A   Overcast
5:14 AM 24.8 °F 10.0 °F 24.8 °F 100% 29.56 in 3.0 mi NNW 21.9 mph 27.6 mph N/A   Overcast
5:34 AM 23.0 °F 6.3 °F 23.0 °F 100% 29.58 in 2.0 mi NNW 26.5 mph 35.7 mph N/A   Overcast
5:55 AM 21.2 °F 1.9 °F 21.2 °F 100% 29.59 in 1.5 mi NNW 34.5 mph 39.1 mph N/A   Overcast
6:14 AM 19.4 °F 0.5 °F 19.4 °F 100% 29.61 in 1.0 mi NNW 29.9 mph 41.4 mph N/A   Overcast
6:34 AM 19.4 °F -0.6 °F 19.4 °F 100% 29.62 in 1.0 mi NNW 34.5 mph 40.3 mph N/A   Overcast
6:55 AM 17.6 °F -2.5 °F 17.6 °F 100% 29.63 in 1.5 mi NNW 32.2 mph 38.0 mph N/A   Overcast
7:14 AM 15.8 °F -6.6 °F 15.8 °F 100% 29.63 in 0.8 mi NNW 39.1 mph 48.3 mph N/A Snow Light Snow
7:35 AM 15.8 °F -7.0 °F 14.0 °F 93% 29.64 in 0.2 mi NNW 41.4 mph - N/A Snow Heavy Snow
8:14 AM 12.2 °F -10.2 °F 12.2 °F 100% 29.67 in 0.2 mi North 33.4 mph 44.9 mph N/A Snow Heavy Snow
8:35 AM 12.2 °F -9.6 °F 10.4 °F 92% 29.70 in 0.2 mi North 31.1 mph 40.3 mph N/A   Overcast
8:54 AM 10.4 °F -11.0 °F 10.4 °F 100% 29.72 in 0.2 mi NNW 27.6 mph 40.3 mph N/A   Overcast
9:14 AM 10.4 °F -10.3 °F 10.4 °F 100% 29.73 in 0.2 mi North 25.3 mph 41.4 mph N/A   Overcast
9:35 AM 10.4 °F -11.0 °F 8.6 °F 92% 29.74 in 0.2 mi NNW 27.6 mph 35.7 mph N/A Snow Light Snow
9:54 AM 10.4 °F -13.2 °F 8.6 °F 92% 29.75 in 0.2 mi NNW 35.7 mph - N/A   Overcast
10:14 AM 10.4 °F -11.7 °F 8.6 °F 92% 29.73 in 0.2 mi NNW 29.9 mph 38.0 mph N/A   Overcast
10:35 AM 8.6 °F -15.4 °F 8.6 °F 100% 29.78 in 0.2 mi NNW 34.5 mph 41.4 mph N/A   Overcast
10:54 AM 8.6 °F -14.8 °F 8.6 °F 100% 29.79 in 0.2 mi NNW 32.2 mph 38.0 mph N/A   Overcast
11:15 AM 8.6 °F -14.8 °F 8.6 °F 100% 29.79 in 0.2 mi NNW 32.2 mph 41.4 mph N/A Snow Light Snow
11:35 AM 8.6 °F -14.8 °F 6.8 °F 92% 29.82 in 0.2 mi NNW 32.2 mph 38.0 mph N/A   Overcast
11:54 AM 8.6 °F -14.1 °F 6.8 °F 92% 29.83 in 0.2 mi North 29.9 mph 36.8 mph N/A Snow Light Snow
12:15 PM 8.6 °F -15.7 °F 6.8 °F 92% 29.84 in 0.2 mi NNW 35.7 mph 40.3 mph N/A Snow Snow
12:35 PM 6.8 °F -17.9 °F 5.0 °F 92% 29.85 in 0.2 mi NNW 34.5 mph 42.6 mph N/A Snow Snow
12:55 PM 6.8 °F -17.3 °F 3.2 °F 85% 29.86 in 0.2 mi North 32.2 mph 42.6 mph N/A Snow Snow
1:15 PM 6.8 °F -15.9 °F 3.2 °F 85% 29.86 in 0.2 mi NNW 27.6 mph 41.4 mph N/A Snow Snow
1:34 PM 5.0 °F -19.4 °F 3.2 °F 92% 29.87 in 0.2 mi NNW 31.1 mph 40.3 mph N/A Snow Snow
1:55 PM 5.0 °F -19.7 °F 1.4 °F 85% 29.87 in 0.2 mi NNW 32.2 mph 41.4 mph N/A Snow Light Snow
2:15 PM 5.0 °F -19.4 °F 1.4 °F 85% 29.88 in 0.2 mi North 31.1 mph 41.4 mph N/A   Overcast
2:34 PM 3.2 °F -21.5 °F 1.4 °F 92% 29.89 in 0.2 mi North 29.9 mph - N/A   Overcast
2:55 PM 3.2 °F -22.5 °F 1.4 °F 92% 29.89 in 0.5 mi NNW 33.4 mph 40.3 mph N/A   Overcast
3:15 PM 3.2 °F -21.5 °F 1.4 °F 92% 29.90 in 0.5 mi North 29.9 mph 38.0 mph N/A   Overcast
3:34 PM 3.2 °F -21.5 °F 1.4 °F 92% 29.92 in 0.5 mi North 29.9 mph - N/A   Overcast
3:55 PM 3.2 °F -20.7 °F 1.4 °F 92% 29.93 in 0.2 mi North 27.6 mph 36.8 mph N/A   Overcast
4:15 PM 3.2 °F -21.1 °F -0.4 °F 85% 29.94 in 0.5 mi North 28.8 mph 35.7 mph N/A   Overcast
4:34 PM 1.4 °F -24.3 °F -0.4 °F 92% 29.94 in 0.5 mi North 31.1 mph 38.0 mph N/A   Overcast
4:55 PM 1.4 °F -23.9 °F -0.4 °F 92% 29.96 in 0.2 mi North 29.9 mph 39.1 mph N/A   Overcast
5:14 PM 1.4 °F -23.5 °F -2.2 °F 85% 29.96 in 0.5 mi North 28.8 mph 35.7 mph N/A   Overcast
5:35 PM 1.4 °F -21.9 °F -0.4 °F 92% 29.98 in 1.0 mi NNW 24.2 mph - N/A   Overcast
5:55 PM 1.4 °F -24.6 °F -2.2 °F 85% 29.99 in 0.5 mi North 32.2 mph 38.0 mph N/A   Overcast
6:14 PM -0.4 °F -26.4 °F -2.2 °F 92% 30.00 in 0.8 mi North 29.9 mph 34.5 mph N/A   Overcast
6:35 PM -0.4 °F -25.6 °F -2.2 °F 92% 30.01 in 1.2 mi North 27.6 mph 34.5 mph N/A   Overcast
6:55 PM -0.4 °F -23.8 °F -2.2 °F 92% 30.02 in 1.2 mi NNW 23.0 mph 29.9 mph N/A   Overcast
7:14 PM -0.4 °F -24.3 °F -2.2 °F 92% 30.02 in 1.0 mi North 24.2 mph 35.7 mph N/A   Overcast
7:35 PM -0.4 °F -25.2 °F -2.2 °F 92% 30.03 in 1.2 mi North 26.5 mph 31.1 mph N/A   Overcast
7:55 PM -0.4 °F -23.8 °F -2.2 °F 92% 30.03 in 1.2 mi North 23.0 mph 33.4 mph N/A   Overcast
8:15 PM -0.4 °F -25.6 °F -2.2 °F 92% 30.03 in 1.0 mi North 27.6 mph 33.4 mph N/A   Overcast
8:35 PM -0.4 °F -26.4 °F -2.2 °F 92% 30.04 in 1.0 mi North 29.9 mph 33.4 mph N/A   Overcast
8:54 PM -0.4 °F -24.7 °F -2.2 °F 92% 30.05 in 1.0 mi North 25.3 mph 32.2 mph N/A   Overcast
9:15 PM -0.4 °F -23.3 °F -2.2 °F 92% 30.05 in 1.0 mi North 21.9 mph 31.1 mph N/A   Overcast
9:35 PM -0.4 °F -24.7 °F -2.2 °F 92% 30.06 in 1.0 mi NNW 25.3 mph 31.1 mph N/A   Overcast
9:54 PM -0.4 °F -24.3 °F -2.2 °F 92% 30.06 in 0.8 mi NNW 24.2 mph 29.9 mph N/A   Overcast
10:15 PM -0.4 °F -24.7 °F -2.2 °F 92% 30.06 in 0.8 mi NNW 25.3 mph 31.1 mph N/A   Overcast
10:35 PM -0.4 °F -26.0 °F -2.2 °F 92% 30.07 in 0.8 mi North 28.8 mph 32.2 mph N/A   Overcast
10:54 PM -0.4 °F -24.3 °F -2.2 °F 92% 30.08 in 1.0 mi NNW 24.2 mph 32.2 mph N/A   Overcast
11:15 PM -0.4 °F -26.4 °F -2.2 °F 92% 30.08 in 0.8 mi NNW 29.9 mph 35.7 mph N/A   Overcast
11:35 PM -0.4 °F -24.7 °F -2.2 °F 92% 30.09 in 1.0 mi NNW 25.3 mph - N/A   Overcast
11:54 PM -0.4 °F -25.2 °F -2.2 °F 92% 30.10 in 1.0 mi North 26.5 mph 34.5 mph N/A   Overcast